Вернуться в каталог

STARLINK-31824

АктивенСвязьVLEO
NORAD 59804·PAYLOAD·🇺🇸 United States

Запущен May 18, 2024 с Cape Canaveral Space Force Station

Loading…

Ближайшие Пролёты (ближайшие 24 часа)

TLE

СвежийSource: CelesTrak SupGP

Эпоха: Sep 14, 2026, 22:52 UTC

1 59804C 24093Y   26257.95326389  .00004560  00000+0  16529-3 0  2578
2 59804  42.9996 220.2738 0001295 262.2946 254.6502 15.27550080    17

Отслеживайте STARLINK-31824 в реальном времени с AllMySat

Download on the App Store